Flag for Western Sahara Weather past 2 weeks in Smara, Western Sahara

Now
63 °F

Partly sunny.


Feels Like: 63 °F
Forecast: 63 / 86 °F
Wind: 7 mph from Northeast

Location: Laayoune/Hassan Isl


UV Index: 7 (High)

Visibility: N/A


Pressure: 30.04 "Hg

Humidity: 77%

Dew point: 55 °F

Location of SmaraLocation

Historic Weather in Smara

°F

Smara temperature yesterday

Maximum temperature yesterday: 75 °F (at 2:00 PM)
Minimum temperature yesterday: 63 °F (at 11:00 PM)
Average temperature yesterday: 68 °F

Past Weeks' High & Low Weather Summary

 TemperatureHumidityPressure
High88 °F (Apr 13, 2:00 PM)100% (Apr 1, 8:19 AM)30.18 "Hg (Apr 1, 8:19 AM)
Low55 °F (Apr 1, 8:00 AM)24% (Apr 13, 2:00 PM)29.83 "Hg (Apr 2, 4:19 AM)
Average66 °F73%29.97 "Hg
* Reported Apr 1 8:00 AM — Apr 16 8:00 AM, Smara, Weather by CustomWeather, © 2014

Note: Actual official high and low records may vary slightly from our data, if they occured in-between our weather recording intervals... More about our weather records

Advertising

Historic Weather Conditions — Data for Previous 24 hours

 ConditionsComfort  
Time TempWeatherWind HumidityBarometerVisibility
8:00 AM
Apr 16
59 °FPassing clouds.5 mph82%30.04 "HgN/A
7:00 AM57 °FPassing clouds.5 mph88%30.01 "HgN/A
6:00 AM59 °FPassing clouds.3 mph82%30.01 "HgN/A
5:00 AM61 °FPassing clouds.5 mph83%30.01 "HgN/A
4:00 AM61 °FPassing clouds.6 mph83%30.01 "HgN/A
3:00 AM61 °FPassing clouds.6 mph88%30.04 "HgN/A
2:00 AM63 °FPassing clouds.9 mph83%30.04 "HgN/A
12:00 AM63 °FClear.12 mph83%30.04 "Hg10 mi
11:00 PM
Apr 15
63 °FClear.8 mph83%30.04 "Hg10 mi
10:00 PM64 °FClear.9 mph78%30.01 "Hg10 mi
8:00 PM68 °FSunny.13 mph69%29.98 "Hg10 mi
7:00 PM70 °FSunny.10 mph64%29.95 "Hg10 mi
6:00 PM72 °FSunny.13 mph57%29.98 "Hg10 mi
5:00 PM75 °FSunny.15 mph50%29.98 "Hg10 mi
4:00 PM73 °FSunny.13 mph57%29.98 "Hg10 mi
3:00 PM75 °FSunny.8 mph50%30.01 "Hg10 mi
2:00 PM75 °FSunny.10 mph54%30.01 "Hg10 mi
1:00 PM73 °FPassing clouds.7 mph53%30.01 "HgN/A
12:00 PM72 °FScattered clouds.5 mph57%30.04 "HgN/A
11:00 AM68 °FPartly sunny.2 mph64%30.04 "HgN/A
10:00 AM66 °FPartly sunny.2 mph73%30.01 "HgN/A
9:00 AM64 °FOvercast.2 mph78%30.01 "HgN/A
Weather by CustomWeather, © 2014

See weather overview